Location: Holyhead Bay
(53.3667°N, 4.6667°W)
Time: 18:54:56
(UTC+00:00)

Landsat 5 - Pass Details

Date: 24 November 2020
Orbit: 528 x 653 km, 98.2° (Epoch: 16 January)

Event Time Altitude Azimuth Distance (km) Brightness Sun altitude
Exits shadow 17:28:12 - 15° (NNE) 2,859 6.6 -11.2°
Reaches altitude 10° 17:30:19 10° 16° (NNE) 1,991 5.8 -11.5°
Maximum altitude 17:34:40 84° 105° (ESE) 642 3.6 -12.1°
Drops below altitude 10° 17:39:08 10° 194° (SSW) 2,037 6.7 -12.7°
Sets 17:41:21 0° 195° (SSW) 2,953 7.5 -13.0°
